CZ-4 DEB

Satellite information

Favourite Embed

Satellite Type and Status

DEBRISIN ORBIT

Key statistics

Satellite CZ-4 DEB at a glance.

Uptime

12832

Days in orbit

Revolutions

≈ 14.2

Per day

Orbit

SSO

Sun Synchronous Orbit

Inclination

98.8

Latest

Satellite identification and parameters

Extended collection of information and parameters for CZ-4 DEB.

Object identification

Identified? True

Debris? True

Object name: CZ-4 DEB

International designator: 1990-081H

Object number (NORAD): 20798

Object ID (CCSDS): 20798

Country: PEOPLES REPUBLIC OF CHINA (PRC)

Current information (Y/N): Y

RCS size: SMALL

Orbital parameters

Period: 101.294 minutes

Inclination: 98.7502 deg

SMA: 7198.067 km

Apoapsis: 825.406 km

Periapsis: 814.459 km

RAAN: 278.878 deg

Eccentricy: 0.00076043

Argument of periapsis: 284.5867 deg

Mean anomaly: 75.4466 deg

Mean motion: 14.21604913 rev/day

Mean motion (dot): 0.00001747 rev/day2

B* drag term: 0.00081669983 1/REarth

Two-line elements (TLE)

Creation date: Oct. 21, 2025, 3:26 a.m.

Reference frame: TEME

Reference center: EARTH

Epoch: Oct. 20, 2025, 10:16 p.m. UTC

TLE line 0: 0 CZ-4 DEB

TLE line 1: 1 20798U 90081H 25293.92808165 .00001747 00000-0 81670-3 0 9998

TLE line 2: 2 20798 98.7502 278.8780 0007604 284.5867 75.4466 14.21604913810693

Live tracking on map

Real-time ground track for satellite CZ-4 DEB.

In-orbit conjunctions

A list of the most updated potential collisions computed for object CZ-4 DEB.

Target Orbit TCA Probability of collision Miss distance Type
SL-16 DEB LEO 2025-04-14 12:58:39 0.0001136666 278.0 (m) DEBRIS
SL-16 DEB LEO 2025-03-05 05:53:11 0.000346213 133.0 (m) DEBRIS
SL-16 DEB LEO 2024-11-13 01:52:26 0.0009306772 173.0 (m) DEBRIS

Associated space launch

Chinese polar orbiting meteorological satellite

CZ-4 DEB was lifted into orbit during the mission ‘Long March 4A | Feng Yun 1B’, on board a Long March 4A space rocket.

The launch took place on Sept. 3, 1990, 12:53 a.m. from Launch Complex 7.

For more information about the launch, click the button.

Launch to space Long March 4A | Feng Yun 1B
Long March 4A | Feng Yun 1B

Agency: N/A

Status: Launch Successful

Launch date: Sept. 3, 1990, 12:53 a.m. UTC

Rocket: Long March 4A

Launch pad: Launch Complex 7

Location: Taiyuan Satellite Launch Center, People's Republic of China

...

Latest news about this satellite

There are no fresh news available about this satellite. Check back as we update our databases every day.


Newsletter sign-up

Weekly statistics, charts and insights to help you stay on top of the space industry.